• In Romania
  • List of Countries
  • For 7 days
  • Water Temperature
  • Satellite Maps
  • Weather Map
  • Weather Widgets
  • user-avatar
    Login

    Hourly Weather Antwerp

    Today, 15 December, Friday

    Time Temperature Precipitation Wind Pressure Humidity
    00:00 0°C° 0 mm 4 mps 742 mmHg 87%
    01:00 0°C° 0 mm 4 mps 742 mmHg 88%
    02:00 0°C° 0 mm 4 mps 742 mmHg 88%
    03:00 0°C° 0 mm 4 mps 742 mmHg 89%
    04:00 0°C° 0 mm 4 mps 742 mmHg 90%
    05:00 0°C° 0 mm 4 mps 743 mmHg 91%
    06:00 +1°C° 0 mm 3 mps 743 mmHg 92%
    07:00 +1°C° 0 mm 3 mps 743 mmHg 92%
    08:00 +1°C° 0 mm 3 mps 744 mmHg 91%
    09:00 +2°C° 0 mm 3 mps 744 mmHg 91%
    10:00 +3°C° 0 mm 3 mps 745 mmHg 87%
    11:00 +3°C° 0 mm 3 mps 745 mmHg 83%
    12:00 +4°C° 0 mm 3 mps 745 mmHg 78%
    13:00 +5°C° 0.1 mm 2 mps 746 mmHg 81%
    14:00 +6°C° 0.1 mm 1 mps 746 mmHg 83%
    15:00 +5°C° 0.1 mm 1 mps 747 mmHg 86%
    16:00 +5°C° 0 mm 1 mps 748 mmHg 87%
    17:00 +4°C° 0 mm 1 mps 749 mmHg 88%
    18:00 +3°C° 0 mm 2 mps 749 mmHg 89%
    19:00 +3°C° 0 mm 2 mps 750 mmHg 89%
    20:00 +3°C° 0 mm 2 mps 751 mmHg 89%
    21:00 +3°C° 0 mm 2 mps 751 mmHg 88%
    22:00 +2°C° 0 mm 3 mps 752 mmHg 88%
    23:00 +2°C° 0 mm 3 mps 753 mmHg 88%

    Tomorrow, 16 December, Saturday

    Time Temperature Precipitation Wind Pressure Humidity
    00:00 +2°C° 0 mm 3 mps 754 mmHg 87%
    01:00 +2°C° 0.1 mm 3 mps 754 mmHg 87%
    02:00 +2°C° 0.1 mm 3 mps 755 mmHg 86%
    03:00 +2°C° 0.1 mm 3 mps 755 mmHg 85%
    04:00 +1°C° 0.2 mm 4 mps 756 mmHg 84%
    05:00 +1°C° 0.2 mm 4 mps 756 mmHg 83%
    06:00 +1°C° 0.2 mm 4 mps 757 mmHg 82%
    07:00 +1°C° 0.1 mm 4 mps 757 mmHg 80%
    08:00 +1°C° 0.1 mm 4 mps 758 mmHg 78%
    09:00 +1°C° 0.1 mm 4 mps 759 mmHg 77%
    10:00 +2°C° 0.3 mm 5 mps 759 mmHg 74%
    11:00 +3°C° 0.3 mm 5 mps 759 mmHg 71%
    12:00 +4°C° 0.3 mm 6 mps 760 mmHg 68%
    13:00 +3°C° 0.3 mm 6 mps 760 mmHg 70%
    14:00 +3°C° 0.3 mm 6 mps 760 mmHg 72%
    15:00 +2°C° 0.3 mm 5 mps 761 mmHg 74%
    16:00 +2°C° 0.2 mm 5 mps 761 mmHg 75%
    17:00 +2°C° 0.2 mm 5 mps 762 mmHg 77%
    18:00 +1°C° 0.2 mm 5 mps 762 mmHg 79%
    19:00 +1°C° 0.1 mm 4 mps 763 mmHg 80%
    20:00 +1°C° 0.1 mm 4 mps 764 mmHg 80%
    21:00 +1°C° 0.1 mm 4 mps 764 mmHg 81%
    22:00 +1°C° 0.1 mm 4 mps 765 mmHg 82%
    23:00 +1°C° 0.1 mm 4 mps 765 mmHg 82%

    Day after tomorrow, 17 December, Sunday

    Time Temperature Precipitation Wind Pressure Humidity
    00:00 +1°C° 0.1 mm 4 mps 766 mmHg 82%
    01:00 +1°C° 0.1 mm 4 mps 766 mmHg 83%
    02:00 +1°C° 0.1 mm 4 mps 766 mmHg 83%
    03:00 +1°C° 0.1 mm 4 mps 766 mmHg 84%
    04:00 +1°C° 0.1 mm 4 mps 767 mmHg 85%
    05:00 +1°C° 0.1 mm 4 mps 767 mmHg 85%
    06:00 +1°C° 0.1 mm 4 mps 767 mmHg 86%
    07:00 +1°C° 0 mm 4 mps 768 mmHg 84%
    08:00 +1°C° 0 mm 4 mps 768 mmHg 83%
    09:00 +1°C° 0 mm 4 mps 768 mmHg 81%
    10:00 +1°C° 0 mm 4 mps 769 mmHg 78%
    11:00 +2°C° 0 mm 5 mps 769 mmHg 74%
    12:00 +3°C° 0 mm 5 mps 769 mmHg 71%
    13:00 +3°C° 0 mm 5 mps 769 mmHg 74%
    14:00 +4°C° 0 mm 4 mps 769 mmHg 77%
    15:00 +4°C° 0 mm 4 mps 769 mmHg 80%
    16:00 +4°C° 0 mm 4 mps 768 mmHg 83%
    17:00 +3°C° 0 mm 5 mps 768 mmHg 85%
    18:00 +2°C° 0 mm 5 mps 768 mmHg 87%
    19:00 +3°C° 0.1 mm 5 mps 768 mmHg 88%
    20:00 +3°C° 0.1 mm 6 mps 768 mmHg 89%
    21:00 +4°C° 0.1 mm 6 mps 768 mmHg 89%
    22:00 +4°C° 0.3 mm 7 mps 768 mmHg 89%
    23:00 +5°C° 0.3 mm 8 mps 767 mmHg 88%

    18 December, Monday

    Time Temperature Precipitation Wind Pressure Humidity
    00:00 +5°C° 0.3 mm 8 mps 767 mmHg 88%
    01:00 +5°C° 1 mm 8 mps 767 mmHg 88%
    02:00 +6°C° 1 mm 9 mps 766 mmHg 88%
    03:00 +6°C° 1 mm 9 mps 766 mmHg 87%
    04:00 +6°C° 0.4 mm 8 mps 766 mmHg 88%
    05:00 +6°C° 0.4 mm 7 mps 767 mmHg 89%
    06:00 +7°C° 0.4 mm 6 mps 767 mmHg 89%
    07:00 +7°C° 0.2 mm 6 mps 767 mmHg 88%
    08:00 +7°C° 0.2 mm 5 mps 768 mmHg 87%
    09:00 +6°C° 0.2 mm 4 mps 768 mmHg 86%
    10:00 +7°C° 0 mm 5 mps 768 mmHg 81%
    11:00 +7°C° 0 mm 5 mps 769 mmHg 75%
    12:00 +7°C° 0 mm 5 mps 769 mmHg 70%
    13:00 +7°C° 0 mm 4 mps 770 mmHg 71%
    14:00 +6°C° 0 mm 4 mps 770 mmHg 73%
    15:00 +7°C° 0 mm 3 mps 770 mmHg 75%
    16:00 +5°C° 0 mm 3 mps 771 mmHg 78%
    17:00 +4°C° 0 mm 3 mps 771 mmHg 81%
    18:00 +5°C° 0 mm 2 mps 772 mmHg 84%
    19:00 +4°C° 0 mm 2 mps 772 mmHg 85%
    20:00 +4°C° 0 mm 2 mps 773 mmHg 86%
    21:00 +5°C° 0 mm 1 mps 773 mmHg 87%
    22:00 +5°C° 0 mm 1 mps 774 mmHg 88%
    23:00 +5°C° 0 mm 1 mps 774 mmHg 88%

    19 December, Tuesday

    Time Temperature Precipitation Wind Pressure Humidity
    00:00 +4°C° 0 mm 1 mps 774 mmHg 89%
    01:00 +4°C° 0 mm 1 mps 774 mmHg 89%
    02:00 +4°C° 0 mm 1 mps 774 mmHg 89%
    03:00 +4°C° 0 mm 1 mps 775 mmHg 90%
    04:00 +4°C° 0 mm 1 mps 775 mmHg 90%
    05:00 +3°C° 0 mm 1 mps 775 mmHg 89%
    06:00 +2°C° 0 mm 2 mps 775 mmHg 89%
    07:00 +3°C° 0 mm 2 mps 775 mmHg 88%
    08:00 +3°C° 0 mm 2 mps 775 mmHg 87%
    09:00 +2°C° 0 mm 3 mps 776 mmHg 86%
    10:00 +3°C° 0 mm 3 mps 776 mmHg 82%
    11:00 +4°C° 0 mm 3 mps 776 mmHg 79%
    12:00 +5°C° 0 mm 3 mps 775 mmHg 75%
    13:00 +5°C° 0 mm 3 mps 775 mmHg 77%
    14:00 +4°C° 0 mm 3 mps 775 mmHg 80%
    15:00 +4°C° 0 mm 3 mps 775 mmHg 82%
    16:00 +4°C° 0.2 mm 3 mps 775 mmHg 84%
    17:00 +4°C° 0.2 mm 3 mps 775 mmHg 87%
    18:00 +4°C° 0.2 mm 3 mps 775 mmHg 89%
    19:00 +5°C° 0.2 mm 3 mps 775 mmHg 91%
    20:00 +5°C° 0.2 mm 3 mps 775 mmHg 93%
    21:00 +5°C° 0.2 mm 3 mps 775 mmHg 95%
    22:00 +5°C° 0.1 mm 3 mps 775 mmHg 95%
    23:00 +7°C° 0.1 mm 3 mps 775 mmHg 96%

    20 December, Wednesday

    Time Temperature Precipitation Wind Pressure Humidity
    00:00 +7°C° 0.1 mm 2 mps 775 mmHg 97%
    01:00 +7°C° 0.1 mm 2 mps 775 mmHg 97%
    02:00 +7°C° 0.1 mm 2 mps 775 mmHg 97%
    03:00 +7°C° 0.1 mm 2 mps 775 mmHg 97%
    04:00 +8°C° 0.1 mm 2 mps 775 mmHg 97%
    05:00 +8°C° 0.1 mm 2 mps 775 mmHg 97%
    06:00 +8°C° 0.1 mm 2 mps 775 mmHg 97%
    07:00 +8°C° 0 mm 2 mps 775 mmHg 97%
    08:00 +8°C° 0 mm 2 mps 775 mmHg 97%
    09:00 +9°C° 0 mm 2 mps 776 mmHg 97%
    10:00 +9°C° 0 mm 2 mps 775 mmHg 97%
    11:00 +9°C° 0 mm 2 mps 775 mmHg 96%
    12:00 +10°C° 0 mm 3 mps 775 mmHg 96%
    13:00 +10°C° 0 mm 3 mps 775 mmHg 96%
    14:00 +10°C° 0 mm 2 mps 775 mmHg 96%
    15:00 +10°C° 0 mm 2 mps 775 mmHg 97%
    16:00 +10°C° 0 mm 2 mps 775 mmHg 97%
    17:00 +10°C° 0 mm 2 mps 775 mmHg 97%
    18:00 +9°C° 0 mm 2 mps 775 mmHg 97%
    19:00 +10°C° 0 mm 3 mps 775 mmHg 97%
    20:00 +10°C° 0 mm 3 mps 775 mmHg 97%
    21:00 +10°C° 0 mm 3 mps 775 mmHg 97%
    22:00 +10°C° 0.1 mm 3 mps 775 mmHg 97%
    23:00 +10°C° 0.1 mm 3 mps 775 mmHg 97%
    Show more